Terminal Aerodrome Forecast
Issued by NWS

Current Version | Previous Version | Text Only | Print | Product List | Glossary Off
Versions: 1 2 3 4 5 6 7 8 9 10 11 12 13

000
FTUS41 KPBZ 011120
TAFMGW
TAF
KMGW 011120Z 0112/0212 22005KT P6SM SCT070
     FM011700 26008G12KT P6SM SCT060
     FM020000 26003KT P6SM SCT100=

USA.gov is the U.S. government's official web portal to all federal, state and local government web resources and services.